When you browse on this site, cookies collect data to enhance your experience and personalize the content and advertising you see.
Visit our Privacy Policy to learn more. By continuing to use the site, you agree to this use of cookies and data.
  • In Hungary
  • List of Countries
  • For 7 days
  • Water Temperature
  • Satellite Maps
  • Weather Map
  • News
  • Weather Widgets
  • user-avatar
    Login

    Hourly Weather Tucker

    Today, 19 June, Wednesday

    Time Temperature Precipitation Wind Pressure Humidity
    00:00 +26°C° 0.5 mm 3 mps 732 mmHg 75%
    01:00 +25°C° 0.3 mm 3 mps 732 mmHg 77%
    02:00 +25°C° 0.3 mm 3 mps 732 mmHg 80%
    03:00 +25°C° 0.3 mm 3 mps 732 mmHg 82%
    04:00 +25°C° 0.1 mm 3 mps 732 mmHg 82%
    05:00 +25°C° 0.1 mm 3 mps 732 mmHg 82%
    06:00 +25°C° 0.1 mm 2 mps 731 mmHg 82%
    07:00 +27°C° 0 mm 2 mps 732 mmHg 74%
    08:00 +28°C° 0 mm 2 mps 732 mmHg 66%
    09:00 +30°C° 0 mm 2 mps 732 mmHg 58%
    10:00 +31°C° 0 mm 3 mps 732 mmHg 53%
    11:00 +33°C° 0 mm 3 mps 731 mmHg 48%
    12:00 +35°C° 0 mm 3 mps 731 mmHg 43%
    13:00 +35°C° 0 mm 4 mps 731 mmHg 43%
    14:00 +34°C° 0 mm 4 mps 730 mmHg 44%
    15:00 +34°C° 0 mm 4 mps 730 mmHg 45%
    16:00 +34°C° 0 mm 4 mps 730 mmHg 48%
    17:00 +33°C° 0 mm 4 mps 730 mmHg 52%
    18:00 +32°C° 0 mm 4 mps 730 mmHg 55%
    19:00 +30°C° 0 mm 3 mps 730 mmHg 58%
    20:00 +29°C° 0 mm 3 mps 730 mmHg 62%
    21:00 +29°C° 0 mm 3 mps 731 mmHg 65%
    22:00 +28°C° 0 mm 3 mps 730 mmHg 66%
    23:00 +28°C° 0 mm 2 mps 730 mmHg 68%

    Tomorrow, 20 June, Thursday

    Time Temperature Precipitation Wind Pressure Humidity
    00:00 +28°C° 0 mm 2 mps 730 mmHg 70%
    01:00 +27°C° 0.2 mm 3 mps 730 mmHg 72%
    02:00 +27°C° 0.2 mm 4 mps 730 mmHg 74%
    03:00 +27°C° 0.2 mm 4 mps 730 mmHg 76%
    04:00 +27°C° 0.8 mm 4 mps 730 mmHg 76%
    05:00 +27°C° 0.8 mm 4 mps 731 mmHg 76%
    06:00 +27°C° 0.8 mm 5 mps 731 mmHg 75%
    07:00 +28°C° 0.3 mm 5 mps 731 mmHg 69%
    08:00 +29°C° 0.3 mm 5 mps 731 mmHg 63%
    09:00 +32°C° 0.3 mm 6 mps 731 mmHg 57%
    10:00 +33°C° 0.5 mm 6 mps 731 mmHg 52%
    11:00 +34°C° 0.5 mm 6 mps 731 mmHg 48%
    12:00 +35°C° 0.5 mm 6 mps 731 mmHg 43%
    13:00 +35°C° 0.1 mm 6 mps 731 mmHg 43%
    14:00 +36°C° 0.1 mm 6 mps 731 mmHg 43%
    15:00 +36°C° 0.1 mm 7 mps 731 mmHg 43%
    16:00 +35°C° 0.1 mm 6 mps 731 mmHg 45%
    17:00 +34°C° 0.1 mm 5 mps 731 mmHg 48%
    18:00 +33°C° 0.1 mm 5 mps 731 mmHg 50%
    19:00 +32°C° 0.7 mm 4 mps 732 mmHg 55%
    20:00 +30°C° 0.7 mm 4 mps 732 mmHg 60%
    21:00 +28°C° 0.7 mm 3 mps 732 mmHg 65%
    22:00 +28°C° 0 mm 3 mps 733 mmHg 67%
    23:00 +28°C° 0 mm 3 mps 733 mmHg 69%

    Day after tomorrow, 21 June, Friday

    Time Temperature Precipitation Wind Pressure Humidity
    00:00 +28°C° 0 mm 2 mps 733 mmHg 71%
    01:00 +27°C° 0 mm 2 mps 733 mmHg 73%
    02:00 +27°C° 0 mm 2 mps 733 mmHg 75%
    03:00 +26°C° 0 mm 2 mps 733 mmHg 77%
    04:00 +27°C° 0 mm 2 mps 733 mmHg 77%
    05:00 +27°C° 0 mm 2 mps 734 mmHg 77%
    06:00 +27°C° 0 mm 2 mps 735 mmHg 76%
    07:00 +29°C° 0 mm 3 mps 735 mmHg 69%
    08:00 +30°C° 0 mm 3 mps 735 mmHg 61%
    09:00 +33°C° 0 mm 3 mps 736 mmHg 53%
    10:00 +35°C° 0 mm 3 mps 736 mmHg 47%
    11:00 +36°C° 0 mm 3 mps 736 mmHg 40%
    12:00 +38°C° 0 mm 3 mps 736 mmHg 34%
    13:00 +38°C° 0 mm 3 mps 736 mmHg 33%
    14:00 +38°C° 0 mm 3 mps 735 mmHg 33%
    15:00 +39°C° 0 mm 3 mps 735 mmHg 32%
    16:00 +38°C° 0 mm 3 mps 735 mmHg 38%
    17:00 +36°C° 0 mm 3 mps 735 mmHg 43%
    18:00 +35°C° 0 mm 3 mps 735 mmHg 49%
    19:00 +34°C° 0 mm 2 mps 736 mmHg 42%
    20:00 +32°C° 0 mm 2 mps 736 mmHg 46%
    21:00 +31°C° 0 mm 1 mps 737 mmHg 49%
    22:00 +30°C° 0 mm 1 mps 736 mmHg 51%
    23:00 +30°C° 0 mm 1 mps 736 mmHg 53%

    22 June, Saturday

    Time Temperature Precipitation Wind Pressure Humidity
    00:00 +29°C° 0 mm 1 mps 736 mmHg 55%
    01:00 +29°C° 0 mm 1 mps 736 mmHg 56%
    02:00 +27°C° 0 mm 0 mps 736 mmHg 57%
    03:00 +27°C° 0 mm 0 mps 736 mmHg 58%
    04:00 +29°C° 0.6 mm 1 mps 737 mmHg 60%
    05:00 +29°C° 0.6 mm 1 mps 737 mmHg 63%
    06:00 +29°C° 0.6 mm 1 mps 738 mmHg 65%
    07:00 +30°C° 0.3 mm 1 mps 738 mmHg 60%
    08:00 +32°C° 0.3 mm 1 mps 738 mmHg 55%
    09:00 +34°C° 0.3 mm 1 mps 738 mmHg 50%
    10:00 +36°C° 0.5 mm 2 mps 738 mmHg 48%
    11:00 +36°C° 0.5 mm 2 mps 738 mmHg 46%
    12:00 +36°C° 0.5 mm 2 mps 738 mmHg 45%
    13:00 +35°C° 2.6 mm 3 mps 737 mmHg 48%
    14:00 +34°C° 2.6 mm 3 mps 737 mmHg 51%
    15:00 +32°C° 2.6 mm 4 mps 736 mmHg 55%
    16:00 +30°C° 2.7 mm 3 mps 736 mmHg 58%
    17:00 +29°C° 2.7 mm 3 mps 736 mmHg 61%
    18:00 +28°C° 2.7 mm 3 mps 736 mmHg 65%
    19:00 +28°C° 1.3 mm 2 mps 736 mmHg 66%
    20:00 +28°C° 1.3 mm 2 mps 737 mmHg 68%
    21:00 +27°C° 1.3 mm 1 mps 737 mmHg 69%
    22:00 +27°C° 0 mm 1 mps 737 mmHg 70%
    23:00 +27°C° 0 mm 1 mps 737 mmHg 70%

    23 June, Sunday

    Time Temperature Precipitation Wind Pressure Humidity
    00:00 +24°C° 0 mm 0 mps 736 mmHg 70%
    01:00 +26°C° 0.1 mm 1 mps 736 mmHg 71%
    02:00 +26°C° 0.1 mm 1 mps 736 mmHg 71%
    03:00 +26°C° 0.1 mm 1 mps 736 mmHg 71%
    04:00 +26°C° 0.3 mm 1 mps 736 mmHg 71%
    05:00 +26°C° 0.3 mm 1 mps 736 mmHg 70%
    06:00 +27°C° 0.3 mm 1 mps 737 mmHg 69%
    07:00 +29°C° 0 mm 2 mps 737 mmHg 62%
    08:00 +31°C° 0 mm 2 mps 737 mmHg 56%
    09:00 +34°C° 0 mm 2 mps 737 mmHg 49%
    10:00 +35°C° 0 mm 3 mps 737 mmHg 45%
    11:00 +37°C° 0 mm 3 mps 737 mmHg 40%
    12:00 +38°C° 0 mm 3 mps 737 mmHg 35%
    13:00 +38°C° 0 mm 3 mps 736 mmHg 35%
    14:00 +38°C° 0 mm 2 mps 736 mmHg 35%
    15:00 +38°C° 0 mm 2 mps 735 mmHg 35%
    16:00 +37°C° 0 mm 2 mps 735 mmHg 37%
    17:00 +36°C° 0 mm 2 mps 735 mmHg 39%
    18:00 +36°C° 0 mm 2 mps 735 mmHg 41%
    19:00 +34°C° 0 mm 2 mps 735 mmHg 46%
    20:00 +32°C° 0 mm 2 mps 735 mmHg 51%
    21:00 +31°C° 0 mm 2 mps 736 mmHg 56%
    22:00 +30°C° 0 mm 2 mps 735 mmHg 57%
    23:00 +29°C° 0 mm 2 mps 735 mmHg 58%

    24 June, Monday

    Time Temperature Precipitation Wind Pressure Humidity
    00:00 +29°C° 0 mm 2 mps 735 mmHg 59%
    01:00 +28°C° 0 mm 2 mps 734 mmHg 61%
    02:00 +28°C° 0 mm 2 mps 734 mmHg 63%
    03:00 +28°C° 0 mm 2 mps 734 mmHg 65%
    04:00 +28°C° 0 mm 2 mps 734 mmHg 64%
    05:00 +28°C° 0 mm 2 mps 735 mmHg 64%
    06:00 +29°C° 0 mm 2 mps 735 mmHg 63%
    07:00 +31°C° 0 mm 2 mps 735 mmHg 54%
    08:00 +33°C° 0 mm 3 mps 735 mmHg 46%
    09:00 +35°C° 0 mm 3 mps 735 mmHg 37%
    10:00 +36°C° 0 mm 4 mps 735 mmHg 35%
    11:00 +37°C° 0 mm 4 mps 735 mmHg 32%
    12:00 +40°C° 0 mm 5 mps 735 mmHg 30%
    13:00 +40°C° 0 mm 5 mps 735 mmHg 29%
    14:00 +40°C° 0 mm 5 mps 734 mmHg 28%
    15:00 +40°C° 0 mm 5 mps 734 mmHg 27%
    16:00 +38°C° 0 mm 4 mps 734 mmHg 30%
    17:00 +37°C° 0 mm 4 mps 733 mmHg 32%
    18:00 +36°C° 0 mm 4 mps 733 mmHg 34%
    19:00 +35°C° 0 mm 3 mps 733 mmHg 35%
    20:00 +34°C° 0 mm 3 mps 734 mmHg 36%
    21:00 +34°C° 0 mm 3 mps 734 mmHg 38%
    22:00 +32°C° 0.4 mm 2 mps 734 mmHg 42%
    23:00 +31°C° 0.4 mm 2 mps 734 mmHg 46%
    Show more